Tracking 20748 objects as of 4-Jun-2020
HD Live streaming from Space Station
objects crossing your sky now
Track the most recent launched group of Starlink satellites

COSMOS 617

Track COSMOS 617 now!
10-day predictions
COSMOS 617 is classified as:


NORAD ID: 6985
Int'l Code: 1973-104A
Perigee: 1,340.5 km
Apogee: 1,491.0 km
Inclination: 74.0 °
Period: 114.0 minutes
Semi major axis: 7786 km
RCS: 0.6851 m2 (medium)
Launch date: December 19, 1973
Source: Commonwealth of Independent States (former USSR) (CIS)
Launch site: PLESETSK MISSILE AND SPACE COMPLEX (PKMTR)
aabbcc
Your satellite tracking list
Your tracking list is empty




NASA's NSSDC Master Catalog

Two Line Element Set (TLE):
1 06985U 73104A   20156.57951865 -.00000000 +00000-0 +88682-4 0  9990
2 06985 074.0265 161.9061 0096672 229.1245 270.4645 12.63484405142892
Source of the keplerian elements: AFSPC